Location: Baix
(44.7118°N, 4.7648°E)
Time: 06:02:23
(UTC+00:00)

Vanguard 1 - Pass Details

Date: 01 December 2020
Orbit: 648 x 3834 km, 34.3° (Epoch: 21 January)

Event Time Altitude Azimuth Distance (km) Brightness Sun altitude
Rises 06:57:39 0° 260° (W) 3,806 12.6 -0.9°
Reaches altitude 10° 06:59:57 10° 253° (WSW) 3,111 12.3 -0.6°
Maximum altitude 07:07:20 44° 183° (S) 2,242 12.2 0.5°
Drops below altitude 10° 07:20:27 10° 119° (ESE) 5,430 16.3 2.5°
Sets 07:25:59 0° 114° (ESE) 6,939 16.6 3.3°
